Location: G�ndlingen
(48.0142°N, 7.6396°E)
Time: 08:35:16
(UTC+00:00)

Cosmos 2278 Rocket - Pass Details

Date: 05 July 2020
Orbit: 841 x 846 km, 71.0° (Epoch: 04 August)

Event Time Altitude Azimuth Distance (km) Brightness Sun altitude
Rises 22:44:42 0° 325° (NW) 3,415 6.6 -18.5°
Reaches altitude 10° 22:47:22 10° 316° (NW) 2,475 5.5 -18.5°
Maximum altitude 22:52:21 33° 255° (WSW) 1,396 3.3 -18.7°
Enters shadow 22:54:46 23° 213° (SSW) 1,708 3.4 -18.8°
